Location: Ivrea
(45.4365°N, 7.8791°E)
Time: 12:05:45
(UTC+02:00)

ACS3 Solar Sail - Visible Passes

Search period start: 12 October 2024 00:00
Search period end: 22 October 2024 00:00
Orbit: 960 x 1033 km, 97.5° (Epoch: 12 October)

Date Brightness Start Highest point End Pass type
(mag) Time Alt. Az. Time Alt. Az. Time Alt. Az.
12 Oct 2.2 20:30:42 29° ESE 20:33:17 42° ENE 20:39:10 10° N visible
12 Oct 3.1 22:15:49 33° WSW 22:17:12 37° W 22:23:01 10° NNW visible
13 Oct 3.5 19:18:28 10° E 19:21:27 14° NE 19:24:25 10° NNE visible
13 Oct 1.8 21:02:17 46° SE 21:04:14 70° ENE 21:10:31 10° N visible
13 Oct 3.8 22:47:24 20° WSW 22:48:38 21° W 22:53:19 10° NW visible
14 Oct 3.0 19:48:45 15° E 19:52:02 23° ENE 19:56:44 10° NNE visible
14 Oct 2.0 21:33:52 54° SSW 21:35:19 72° W 21:41:38 10° NNW visible
14 Oct 4.4 23:18:58 11° W 23:20:15 11° W 23:22:12 10° WNW visible
15 Oct 2.4 20:20:19 27° ESE 20:22:45 37° ENE 20:28:25 10° N visible
15 Oct 2.9 22:05:25 39° WSW 22:06:31 42° W 22:12:29 10° NNW visible
16 Oct 3.6 19:08:48 10° ENE 19:10:58 12° NE 19:13:08 10° NNE visible
16 Oct 1.8 20:51:52 45° SE 20:53:37 61° ENE 20:59:48 10° N visible
16 Oct 3.7 22:36:59 24° WSW 22:37:53 24° W 22:42:55 10° NW visible
17 Oct 3.1 19:38:18 14° E 19:41:28 20° ENE 19:45:48 10° NNE visible
17 Oct 1.8 21:23:25 61° S 21:24:37 81° WSW 21:30:57 10° NNW visible
17 Oct 4.3 23:08:31 13° W 23:09:25 13° W 23:12:24 10° NW visible
18 Oct 2.5 20:09:50 25° E 20:12:07 32° ENE 20:17:34 10° N visible
18 Oct 2.6 21:54:57 45° WSW 21:55:46 48° W 22:01:50 10° NNW visible
19 Oct 1.9 20:41:21 43° ESE 20:42:55 53° ENE 20:48:59 10° N visible
19 Oct 3.5 22:26:28 28° W 22:27:04 28° W 22:32:22 10° NNW visible
20 Oct 3.2 19:27:46 12° E 19:30:50 17° ENE 19:34:43 10° NNE visible
20 Oct 1.7 21:12:52 66° SSE 21:13:52 88° ENE 21:20:10 10° NNW visible
20 Oct 4.2 22:57:59 16° W 22:58:31 16° W 23:02:11 10° NW visible
21 Oct 2.7 19:59:16 23° E 20:01:25 28° ENE 20:06:36 10° N visible
21 Oct 2.4 21:44:22 53° WSW 21:44:56 55° W 21:51:05 10° NNW visible
